Time,TemperatureF,DewpointF,PressureIn,WindDirection,WindDirectionDegrees,WindSpeedMPH,WindSpeedGustMPH,Humidity,HourlyPrecipIn,Conditions,Clouds,dailyrainin,SoftwareType,DateUTC
2013-02-06 00:01:00,50.0,-99.9,30.16,NNW,337,8.0,9.0,-999,-99.99,,,-99.99,,2013-02-06 08:01:00,
2013-02-06 00:11:00,50.0,-99.9,30.16,North,352,6.0,8.0,-999,-99.99,,,-99.99,,2013-02-06 08:11:00,
2013-02-06 00:21:00,50.0,-99.9,30.16,NNW,330,6.0,9.0,-999,-99.99,,,-99.99,,2013-02-06 08:21:00,
2013-02-06 00:32:00,50.0,-99.9,30.16,North,7,4.0,6.0,-999,-99.99,,,-99.99,,2013-02-06 08:32:00,
2013-02-06 00:42:00,49.0,-99.9,30.16,NW,322,4.0,4.0,-999,-99.99,,,-99.99,,2013-02-06 08:42:00,
2013-02-06 00:53:00,50.0,-99.9,30.16,North,2,6.0,9.0,-999,-99.99,,,-99.99,,2013-02-06 08:53:00,
2013-02-06 01:02:00,49.0,-99.9,30.15,North,352,7.0,8.0,-999,-99.99,,,-99.99,,2013-02-06 09:02:00,
2013-02-06 01:11:00,49.0,-99.9,30.15,North,352,7.0,8.0,-999,-99.99,,,-99.99,,2013-02-06 09:11:00,
2013-02-06 01:22:00,50.0,-99.9,30.14,NW,321,10.0,12.0,-999,-99.99,,,-99.99,,2013-02-06 09:22:00,
2013-02-06 01:32:00,50.0,-99.9,30.15,NNW,333,8.0,12.0,-999,-99.99,,,-99.99,,2013-02-06 09:32:00,
2013-02-06 01:42:00,49.0,-99.9,30.15,North,5,4.0,6.0,-999,-99.99,,,-99.99,,2013-02-06 09:42:00,
2013-02-06 02:01:00,49.0,-99.9,30.15,NNW,343,6.0,8.0,-999,-99.99,,,-99.99,,2013-02-06 10:01:00,
2013-02-06 02:11:00,48.0,-99.9,30.14,NNW,337,6.0,7.0,-999,-99.99,,,-99.99,,2013-02-06 10:11:00,
2013-02-06 02:22:00,48.0,-99.9,30.15,NNW,347,5.0,6.0,-999,-99.99,,,-99.99,,2013-02-06 10:22:00,
2013-02-06 02:32:00,48.0,-99.9,30.15,NNW,338,1.0,3.0,-999,-99.99,,,-99.99,,2013-02-06 10:32:00,
2013-02-06 02:42:00,48.0,-99.9,30.15,NW,322,2.0,2.0,-999,-99.99,,,-99.99,,2013-02-06 10:42:00,
2013-02-06 02:52:00,48.0,-99.9,30.15,North,353,1.0,3.0,-999,-99.99,,,-99.99,,2013-02-06 10:52:00,
2013-02-06 03:02:00,47.0,-99.9,30.14,NE,34,2.0,3.0,-999,-99.99,,,-99.99,,2013-02-06 11:02:00,
2013-02-06 03:11:00,47.0,-99.9,30.14,ENE,59,1.0,3.0,-999,-99.99,,,-99.99,,2013-02-06 11:11:00,
2013-02-06 03:33:00,48.0,-99.9,30.14,North,356,3.0,4.0,-999,-99.99,,,-99.99,,2013-02-06 11:33:00,
2013-02-06 03:42:00,48.0,-99.9,30.15,NNW,345,3.0,4.0,-999,-99.99,,,-99.99,,2013-02-06 11:42:00,
2013-02-06 03:53:00,47.0,-99.9,30.15,North,1,2.0,4.0,-999,-99.99,,,-99.99,,2013-02-06 11:53:00,
2013-02-06 04:12:00,48.0,-99.9,30.15,NNW,336,3.0,5.0,-999,-99.99,,,-99.99,,2013-02-06 12:12:00,
2013-02-06 04:22:00,48.0,-99.9,30.15,NNW,337,5.0,6.0,-999,-99.99,,,-99.99,,2013-02-06 12:22:00,
2013-02-06 04:32:00,47.0,-99.9,30.14,North,360,3.0,5.0,-999,-99.99,,,-99.99,,2013-02-06 12:32:00,
2013-02-06 04:42:00,47.0,-99.9,30.15,NNE,29,0.0,2.0,-999,-99.99,,,-99.99,,2013-02-06 12:42:00,
2013-02-06 04:52:00,47.0,-99.9,30.16,East,85,2.0,3.0,-999,-99.99,,,-99.99,,2013-02-06 12:52:00,
2013-02-06 05:02:00,47.0,-99.9,30.16,NE,43,1.0,3.0,-999,-99.99,,,-99.99,,2013-02-06 13:02:00,
2013-02-06 05:12:00,47.0,-99.9,30.16,NE,43,1.0,3.0,-999,-99.99,,,-99.99,,2013-02-06 13:12:00,
2013-02-06 05:22:00,47.0,-99.9,30.16,ENE,72,4.0,5.0,-999,-99.99,,,-99.99,,2013-02-06 13:22:00,
2013-02-06 05:32:00,46.0,-99.9,30.16,ENE,75,4.0,5.0,-999,-99.99,,,-99.99,,2013-02-06 13:32:00,
2013-02-06 05:42:00,46.0,-99.9,30.16,ENE,61,4.0,6.0,-999,-99.99,,,-99.99,,2013-02-06 13:42:00,
2013-02-06 05:52:00,46.0,-99.9,30.16,NE,55,4.0,4.0,-999,-99.99,,,-99.99,,2013-02-06 13:52:00,
2013-02-06 06:02:00,46.0,-99.9,30.16,NE,52,3.0,4.0,-999,-99.99,,,-99.99,,2013-02-06 14:02:00,
2013-02-06 06:11:00,46.0,-99.9,30.16,NE,54,-999.0,1.0,-999,-99.99,,,-99.99,,2013-02-06 14:11:00,
2013-02-06 06:22:00,47.0,-99.9,30.16,NW,319,4.0,4.0,-999,-99.99,,,-99.99,,2013-02-06 14:22:00,
2013-02-06 06:32:00,47.0,-99.9,30.16,NW,319,4.0,4.0,-999,-99.99,,,-99.99,,2013-02-06 14:32:00,
2013-02-06 06:42:00,47.0,-99.9,30.16,NW,304,3.0,5.0,-999,-99.99,,,-99.99,,2013-02-06 14:42:00,
2013-02-06 06:52:00,47.0,-99.9,30.17,NNW,346,4.0,5.0,-999,-99.99,,,-99.99,,2013-02-06 14:52:00,
2013-02-06 07:02:00,47.0,-99.9,30.17,NNW,346,4.0,5.0,-999,-99.99,,,-99.99,,2013-02-06 15:02:00,
2013-02-06 07:11:00,46.0,-99.9,30.17,NE,49,3.0,4.0,-999,-99.99,,,-99.99,,2013-02-06 15:11:00,
2013-02-06 07:21:00,46.0,-99.9,30.17,NE,49,3.0,4.0,-999,-99.99,,,-99.99,,2013-02-06 15:21:00,
2013-02-06 07:32:00,46.0,-99.9,30.17,NE,52,3.0,4.0,-999,-99.99,,,-99.99,,2013-02-06 15:32:00,
2013-02-06 07:42:00,45.0,-99.9,30.17,NE,51,3.0,5.0,-999,-99.99,,,-99.99,,2013-02-06 15:42:00,
2013-02-06 07:52:00,46.0,-99.9,30.17,NE,40,4.0,4.0,-999,-99.99,,,-99.99,,2013-02-06 15:52:00,
2013-02-06 08:01:00,46.0,-99.9,30.18,NE,39,4.0,4.0,-999,-99.99,,,-99.99,,2013-02-06 16:01:00,
2013-02-06 08:11:00,46.0,-99.9,30.18,NNE,25,2.0,4.0,-999,-99.99,,,-99.99,,2013-02-06 16:11:00,
2013-02-06 08:22:00,46.0,-99.9,30.19,NW,321,2.0,3.0,-999,-99.99,,,-99.99,,2013-02-06 16:22:00,
2013-02-06 08:32:00,46.0,-99.9,30.19,NW,324,3.0,4.0,-999,-99.99,,,-99.99,,2013-02-06 16:32:00,
2013-02-06 08:52:00,47.0,-99.9,30.19,NNW,346,3.0,5.0,-999,-99.99,,,-99.99,,2013-02-06 16:52:00,
2013-02-06 09:02:00,47.0,-99.9,30.19,North,355,2.0,4.0,-999,-99.99,,,-99.99,,2013-02-06 17:02:00,
2013-02-06 09:12:00,46.0,-99.9,30.19,West,276,2.0,4.0,-999,-99.99,,,-99.99,,2013-02-06 17:12:00,
2013-02-06 09:22:00,46.0,-99.9,30.19,West,262,1.0,3.0,-999,-99.99,,,-99.99,,2013-02-06 17:22:00,
2013-02-06 09:32:00,47.0,-99.9,30.19,WSW,246,1.0,2.0,-999,-99.99,,,-99.99,,2013-02-06 17:32:00,
2013-02-06 09:42:00,47.0,-99.9,30.19,SSW,202,2.0,3.0,-999,-99.99,,,-99.99,,2013-02-06 17:42:00,
2013-02-06 09:53:00,48.0,-99.9,30.20,SW,214,2.0,3.0,-999,-99.99,,,-99.99,,2013-02-06 17:53:00,
2013-02-06 10:02:00,49.0,-99.9,30.19,SSE,154,0.0,1.0,-999,-99.99,,,-99.99,,2013-02-06 18:02:00,
2013-02-06 10:12:00,50.0,-99.9,30.19,SSE,166,0.0,2.0,-999,-99.99,,,-99.99,,2013-02-06 18:12:00,
2013-02-06 10:23:00,49.0,-99.9,30.20,SSW,194,2.0,3.0,-999,-99.99,,,-99.99,,2013-02-06 18:23:00,
2013-02-06 10:33:00,49.0,-99.9,30.20,South,173,2.0,3.0,-999,-99.99,,,-99.99,,2013-02-06 18:33:00,
2013-02-06 10:42:00,49.0,-99.9,30.20,SSE,163,2.0,3.0,-999,-99.99,,,-99.99,,2013-02-06 18:42:00,
2013-02-06 10:52:00,50.0,-99.9,30.21,SSE,167,2.0,2.0,-999,-99.99,,,-99.99,,2013-02-06 18:52:00,
2013-02-06 11:02:00,51.0,-99.9,30.20,South,173,1.0,2.0,-999,-99.99,,,-99.99,,2013-02-06 19:02:00,
2013-02-06 11:11:00,51.0,-99.9,30.20,South,170,1.0,2.0,-999,-99.99,,,-99.99,,2013-02-06 19:11:00,
2013-02-06 11:32:00,50.0,-99.9,30.19,SSE,160,3.0,4.0,-999,-99.99,,,-99.99,,2013-02-06 19:32:00,
2013-02-06 11:42:00,50.0,-99.9,30.19,SSE,160,3.0,4.0,-999,-99.99,,,-99.99,,2013-02-06 19:42:00,
2013-02-06 12:01:00,51.0,-99.9,30.19,SSE,160,4.0,4.0,-999,-99.99,,,-99.99,,2013-02-06 20:01:00,
2013-02-06 12:11:00,51.0,-99.9,30.18,SSE,153,3.0,5.0,-999,-99.99,,,-99.99,,2013-02-06 20:11:00,
2013-02-06 12:22:00,51.0,-99.9,30.18,SSE,153,4.0,6.0,-999,-99.99,,,-99.99,,2013-02-06 20:22:00,
2013-02-06 12:32:00,51.0,-99.9,30.18,SSE,160,4.0,5.0,-999,-99.99,,,-99.99,,2013-02-06 20:32:00,
2013-02-06 12:42:00,51.0,-99.9,30.17,SSE,163,5.0,6.0,-999,-99.99,,,-99.99,,2013-02-06 20:42:00,
2013-02-06 12:52:00,51.0,-99.9,30.17,SSE,164,6.0,8.0,-999,-99.99,,,-99.99,,2013-02-06 20:52:00,
2013-02-06 13:02:00,51.0,-99.9,30.16,SSE,162,6.0,8.0,-999,-99.99,,,-99.99,,2013-02-06 21:02:00,
2013-02-06 13:11:00,52.0,-99.9,30.16,SSE,159,6.0,8.0,-999,-99.99,,,-99.99,,2013-02-06 21:11:00,
2013-02-06 13:32:00,53.0,-99.9,30.15,SSE,163,6.0,8.0,-999,-99.99,,,-99.99,,2013-02-06 21:32:00,
2013-02-06 13:42:00,53.0,-99.9,30.15,SSE,161,6.0,7.0,-999,-99.99,,,-99.99,,2013-02-06 21:42:00,
2013-02-06 13:52:00,53.0,-99.9,30.14,SSE,160,5.0,6.0,-999,-99.99,,,-99.99,,2013-02-06 21:52:00,
2013-02-06 14:01:00,53.0,-99.9,30.14,SSE,159,4.0,6.0,-999,-99.99,,,-99.99,,2013-02-06 22:01:00,
2013-02-06 14:11:00,54.0,-99.9,30.14,South,177,3.0,4.0,-999,-99.99,,,-99.99,,2013-02-06 22:11:00,
2013-02-06 14:22:00,54.0,-99.9,30.14,South,183,3.0,5.0,-999,-99.99,,,-99.99,,2013-02-06 22:22:00,
2013-02-06 14:32:00,54.0,-99.9,30.13,SSE,159,4.0,5.0,-999,-99.99,,,-99.99,,2013-02-06 22:32:00,
2013-02-06 14:42:00,54.0,-99.9,30.13,South,177,3.0,4.0,-999,-99.99,,,-99.99,,2013-02-06 22:42:00,
2013-02-06 14:52:00,54.0,-99.9,30.13,SSE,162,4.0,4.0,-999,-99.99,,,-99.99,,2013-02-06 22:52:00,
2013-02-06 15:01:00,53.0,-99.9,30.13,SSE,161,5.0,6.0,-999,-99.99,,,-99.99,,2013-02-06 23:01:00,
2013-02-06 15:11:00,54.0,-99.9,30.13,SSE,155,3.0,5.0,-999,-99.99,,,-99.99,,2013-02-06 23:11:00,
2013-02-06 15:21:00,54.0,-99.9,30.13,SSE,157,4.0,5.0,-999,-99.99,,,-99.99,,2013-02-06 23:21:00,
2013-02-06 15:32:00,54.0,-99.9,30.13,SSE,159,4.0,5.0,-999,-99.99,,,-99.99,,2013-02-06 23:32:00,
2013-02-06 15:42:00,54.0,-99.9,30.13,SSE,158,4.0,6.0,-999,-99.99,,,-99.99,,2013-02-06 23:42:00,
2013-02-06 15:52:00,56.0,-99.9,30.13,West,272,4.0,9.0,-999,-99.99,,,-99.99,,2013-02-06 23:52:00,
2013-02-06 16:02:00,56.0,-99.9,30.13,NW,307,4.0,8.0,-999,-99.99,,,-99.99,,2013-02-07 00:02:00,
2013-02-06 16:11:00,55.0,-99.9,30.13,NNW,330,7.0,9.0,-999,-99.99,,,-99.99,,2013-02-07 00:11:00,
2013-02-06 16:22:00,55.0,-99.9,30.13,NW,320,10.0,13.0,-999,-99.99,,,-99.99,,2013-02-07 00:22:00,
2013-02-06 16:32:00,55.0,-99.9,30.13,NW,318,9.0,11.0,-999,-99.99,,,-99.99,,2013-02-07 00:32:00,
2013-02-06 16:42:00,54.0,-99.9,30.13,NNW,336,6.0,8.0,-999,-99.99,,,-99.99,,2013-02-07 00:42:00,
2013-02-06 16:52:00,54.0,-99.9,30.13,NNW,328,8.0,10.0,-999,-99.99,,,-99.99,,2013-02-07 00:52:00,
2013-02-06 17:01:00,54.0,-99.9,30.13,NW,326,9.0,11.0,-999,-99.99,,,-99.99,,2013-02-07 01:01:00,
2013-02-06 17:11:00,55.0,-99.9,30.14,WNW,299,8.0,10.0,-999,-99.99,,,-99.99,,2013-02-07 01:11:00,
2013-02-06 17:21:00,54.0,-99.9,30.13,NW,318,9.0,11.0,-999,-99.99,,,-99.99,,2013-02-07 01:21:00,
2013-02-06 17:32:00,54.0,-99.9,30.13,WNW,300,8.0,10.0,-999,-99.99,,,-99.99,,2013-02-07 01:32:00,
2013-02-06 17:42:00,54.0,-99.9,30.13,WNW,300,8.0,12.0,-999,-99.99,,,-99.99,,2013-02-07 01:42:00,
2013-02-06 17:52:00,54.0,-99.9,30.14,WNW,303,7.0,10.0,-999,-99.99,,,-99.99,,2013-02-07 01:52:00,
2013-02-06 18:02:00,53.0,-99.9,30.14,WNW,299,8.0,10.0,-999,-99.99,,,-99.99,,2013-02-07 02:02:00,
2013-02-06 18:12:00,53.0,-99.9,30.14,WNW,301,8.0,12.0,-999,-99.99,,,-99.99,,2013-02-07 02:12:00,
2013-02-06 18:32:00,53.0,-99.9,30.14,WNW,301,9.0,13.0,-999,-99.99,,,-99.99,,2013-02-07 02:32:00,
2013-02-06 18:42:00,53.0,-99.9,30.14,WNW,301,9.0,13.0,-999,-99.99,,,-99.99,,2013-02-07 02:42:00,
2013-02-06 18:52:00,53.0,-99.9,30.14,WNW,301,9.0,13.0,-999,-99.99,,,-99.99,,2013-02-07 02:52:00,
2013-02-06 19:02:00,52.0,-99.9,30.15,WNW,300,6.0,14.0,-999,-99.99,,,-99.99,,2013-02-07 03:02:00,
2013-02-06 19:11:00,52.0,-99.9,30.15,NW,307,8.0,10.0,-999,-99.99,,,-99.99,,2013-02-07 03:11:00,
2013-02-06 19:22:00,52.0,-99.9,30.15,NW,315,9.0,11.0,-999,-99.99,,,-99.99,,2013-02-07 03:22:00,
2013-02-06 19:32:00,51.0,-99.9,30.15,WNW,300,6.0,11.0,-999,-99.99,,,-99.99,,2013-02-07 03:32:00,
2013-02-06 19:42:00,51.0,-99.9,30.15,NW,305,5.0,8.0,-999,-99.99,,,-99.99,,2013-02-07 03:42:00,
2013-02-06 19:52:00,51.0,-99.9,30.16,WSW,253,4.0,7.0,-999,-99.99,,,-99.99,,2013-02-07 03:52:00,
2013-02-06 20:01:00,51.0,-99.9,30.16,SW,235,3.0,4.0,-999,-99.99,,,-99.99,,2013-02-07 04:01:00,
2013-02-06 20:11:00,50.0,-99.9,30.16,WNW,286,2.0,5.0,-999,-99.99,,,-99.99,,2013-02-07 04:11:00,
2013-02-06 20:22:00,51.0,-99.9,30.16,WNW,285,7.0,11.0,-999,-99.99,,,-99.99,,2013-02-07 04:22:00,
2013-02-06 20:32:00,51.0,-99.9,30.16,West,265,4.0,10.0,-999,-99.99,,,-99.99,,2013-02-07 04:32:00,
2013-02-06 20:42:00,51.0,-99.9,30.17,WNW,291,5.0,9.0,-999,-99.99,,,-99.99,,2013-02-07 04:42:00,
2013-02-06 20:53:00,51.0,-99.9,30.17,NW,315,8.0,11.0,-999,-99.99,,,-99.99,,2013-02-07 04:53:00,
2013-02-06 21:02:00,51.0,-99.9,30.17,NW,320,11.0,13.0,-999,-99.99,,,-99.99,,2013-02-07 05:02:00,
2013-02-06 21:12:00,51.0,-99.9,30.17,NW,325,11.0,14.0,-999,-99.99,,,-99.99,,2013-02-07 05:12:00,
2013-02-06 21:22:00,51.0,-99.9,30.17,NW,314,8.0,11.0,-999,-99.99,,,-99.99,,2013-02-07 05:22:00,
2013-02-06 21:32:00,51.0,-99.9,30.17,West,270,4.0,7.0,-999,-99.99,,,-99.99,,2013-02-07 05:32:00,
2013-02-06 21:43:00,51.0,-99.9,30.17,WSW,240,4.0,8.0,-999,-99.99,,,-99.99,,2013-02-07 05:43:00,
2013-02-06 21:52:00,51.0,-99.9,30.17,NW,313,5.0,7.0,-999,-99.99,,,-99.99,,2013-02-07 05:52:00,
2013-02-06 22:02:00,51.0,-99.9,30.17,WNW,302,5.0,7.0,-999,-99.99,,,-99.99,,2013-02-07 06:02:00,
2013-02-06 22:11:00,51.0,-99.9,30.16,WNW,297,4.0,6.0,-999,-99.99,,,-99.99,,2013-02-07 06:11:00,
2013-02-06 22:22:00,51.0,-99.9,30.17,SSE,162,4.0,5.0,-999,-99.99,,,-99.99,,2013-02-07 06:22:00,
2013-02-06 22:32:00,50.0,-99.9,30.17,SW,230,2.0,3.0,-999,-99.99,,,-99.99,,2013-02-07 06:32:00,
2013-02-06 22:43:00,50.0,-99.9,30.17,SW,230,2.0,3.0,-999,-99.99,,,-99.99,,2013-02-07 06:43:00,
2013-02-06 22:53:00,50.0,-99.9,30.17,North,-999,1.0,3.0,-999,-99.99,,,-99.99,,2013-02-07 06:53:00,
2013-02-06 23:12:00,50.0,-99.9,30.17,SW,230,1.0,2.0,-999,-99.99,,,-99.99,,2013-02-07 07:12:00,
2013-02-06 23:22:00,50.0,-99.9,30.17,South,179,0.0,2.0,-999,-99.99,,,-99.99,,2013-02-07 07:22:00,
2013-02-06 23:32:00,50.0,-99.9,30.17,WSW,245,2.0,5.0,-999,-99.99,,,-99.99,,2013-02-07 07:32:00,
2013-02-06 23:42:00,49.0,-99.9,30.17,SW,222,4.0,7.0,-999,-99.99,,,-99.99,,2013-02-07 07:42:00,
2013-02-06 23:52:00,49.0,-99.9,30.17,SW,229,3.0,7.0,-999,-99.99,,,-99.99,,2013-02-07 07:52:00,